Location: Cucq
(50.4773°N, 1.6202°E)
Time: 09:00:19
(UTC+00:00)

TIMED - Pass Details

Date: 07 August 2020
Orbit: 602 x 604 km, 74.1° (Epoch: 20 September)

Event Time Altitude Azimuth Distance (km) Brightness Sun altitude
Rises 02:29:06 0° 333° (NNW) 2,871 8.3 -15.6°
Reaches altitude 10° 02:31:21 10° 330° (NNW) 1,963 7.4 -15.3°
Maximum altitude 02:35:41 62° 250° (WSW) 682 4.5 -14.9°
Enters shadow 02:39:38 12° 171° (S) 1,810 6.6 -14.5°
